This is the latest recevied weather packets stored in our database for station/object KO4YAW. If no packets are shown the sender has not sent any weather packets the latest 10 day(s).
| Time | Temp. | Humidity | Pressure | Rain* | Wind** | Luminosity | Snow |
|---|---|---|---|---|---|---|---|
| 1788373129 | 28.89° C | 24% | 1019.5 hPa | 0 mm | - | 551 W/m² | - |
| 1788372229 | 29.44° C | 24% | 1019.5 hPa | 0 mm | - | 937 W/m² | - |
| 1788371329 | 28.89° C | 25% | 1019.8 hPa | 0 mm | - | 112 W/m² | - |
| 1788370429 | 28.33° C | 25% | 1019.9 hPa | 0 mm | - | 325 W/m² | - |
| 1788369529 | 28.33° C | 26% | 1019.9 hPa | 0 mm | - | 607 W/m² | - |
| 1788368629 | 28.33° C | 26% | 1019.9 hPa | 0 mm | - | 583 W/m² | - |
| 1788367729 | 27.78° C | 27% | 1020.1 hPa | 0 mm | - | 139 W/m² | - |
| 1788366829 | 27.22° C | 29% | 1020.2 hPa | 0 mm | - | 440 W/m² | - |
| 1788365929 | 26.11° C | 31% | 1020.1 hPa | 0 mm | - | 731 W/m² | - |
| 1788365029 | 25.56° C | 34% | 1020.1 hPa | 0 mm | - | 323 W/m² | - |
| 1788364129 | 24.44° C | 35% | 1020.3 hPa | 0 mm | - | 199 W/m² | - |
| 1788363250 | 23.33° C | 37% | 1020.3 hPa | 0 mm | - | 93 W/m² | - |
| 1788362329 | 22.78° C | 40% | 1020.4 hPa | 0 mm | - | 47 W/m² | - |
| 1788361429 | 22.22° C | 43% | 1020.5 hPa | 0 mm | - | 44 W/m² | - |
| 1788360529 | 21.11° C | 44% | 1020.4 hPa | 0 mm | - | 41 W/m² | - |
| 1788359629 | 20° C | 46% | 1020.4 hPa | 0 mm | - | 39 W/m² | - |
| 1788358729 | 19.44° C | 50% | 1020.4 hPa | 0 mm | - | 103 W/m² | - |
| 1788357829 | 18.33° C | 53% | 1020.3 hPa | 0 mm | - | 37 W/m² | - |
| 1788356929 | 17.78° C | 55% | 1020.3 hPa | 0 mm | - | 43 W/m² | - |
| 1788356029 | 17.22° C | 57% | 1020.3 hPa | 0 mm | - | 33 W/m² | - |
| 1788355129 | 16.67° C | 58% | 1020.1 hPa | 0 mm | - | 70 W/m² | - |
| 1788354229 | 16.67° C | 58% | 1019.9 hPa | 0 mm | - | 24 W/m² | - |
| 1788353329 | 16.67° C | 59% | 1019.8 hPa | 0 mm | - | 14 W/m² | - |
| 1788352429 | 16.67° C | 58% | 1019.7 hPa | 0 mm | - | 4 W/m² | - |
| 1788351529 | 16.67° C | 58% | 1019.6 hPa | 0 mm | - | 0 W/m² | - |
* Rain since midnight (hover to see other rain measurements)
** Current wind speed in m/s (hover to see current wind gust speed)